Clines Corner, NM

10:29 AM MDT on May 20, 2018 (GMT -0600)
Clines Corner

Weather History for KCQC - October, 2011

Change the Weather History Date:

Wednesday, October 26, 2011

  Actual Average (KSAF) Record (KSAF)
Temperature  
Mean Temperature 40 °F -  
Max Temperature 52 °F 61 °F 77 °F (2007)
Min Temperature 28 °F 28 °F 21 °F (1997)
Degree Days  
Heating Degree Days 26    
Moisture  
Dew Point 32 °F    
Average Humidity 81    
Maximum Humidity 100    
Minimum Humidity 54    
Precipitation  
Precipitation 0.48 in - - ()
Sea Level Pressure  
Sea Level Pressure 29.96 in    
Wind  
Wind Speed 17 mph (East)    
Max Wind Speed 25 mph    
Max Gust Speed 33 mph    
Visibility 6 miles    
Events Fog , Rain , Snow    
Averages and records for this station are not official NWS values.
T = Trace of Precipitation, MM = Missing Value Source: NWS Daily Summary

Daily Weather History Graph

Daily Weather History Graph

Search for Another Location

Airport or City:

Astronomy

Oct. 26, 2011 Rise Set
Actual Time 7:17 AM MDT 6:14 PM MDT
Civil Twilight 6:52 AM MDT 6:40 PM MDT
Nautical Twilight 6:22 AM MDT 7:10 PM MDT
Astronomical Twilight 5:52 AM MDT 7:39 PM MDT
Moon 7:06 AM MDT (10/26) 6:02 PM MDT (10/26)
Length of Visible Light 11h 48m
Length of Day
10h 56m
Waning Crescent, 0% of the Moon is Illuminated
Oct 26
Waning Crescent
Oct 26
New
Nov 2
First Quarter
Nov 10
Full
Nov 18
Last Quarter

Hourly Weather History & Observations

Time (MDT) Temp. Windchill Dew Point Humidity Pressure Visibility Wind Dir Wind Speed Gust Speed Precip Events Conditions
12:53 AM 43.0 °F 36.8 °F 36.0 °F 76% 29.90 in 10.0 mi West 11.5 mph - N/A   Clear
1:53 AM 45.0 °F 38.5 °F 36.0 °F 71% 29.89 in 10.0 mi West 13.8 mph - N/A   Clear
2:53 AM 46.9 °F - 36.0 °F 66% 29.87 in 10.0 mi West 16.1 mph - N/A   Clear
3:53 AM 46.9 °F - 35.1 °F 63% 29.86 in 10.0 mi West 16.1 mph - N/A   Clear
4:53 AM 46.9 °F - 34.0 °F 61% 29.86 in 10.0 mi West 13.8 mph - N/A   Clear
5:53 AM 43.0 °F 37.2 °F 33.1 °F 68% 29.90 in 10.0 mi West 10.4 mph - N/A   Clear
6:53 AM 42.1 °F 36.6 °F 32.0 °F 67% 29.94 in 10.0 mi WSW 9.2 mph - N/A   Clear
7:53 AM 39.0 °F 32.8 °F 33.1 °F 79% 29.98 in 10.0 mi East 9.2 mph - N/A   Clear
8:53 AM 39.9 °F 32.5 °F 33.1 °F 77% 29.98 in 10.0 mi East 12.7 mph - N/A   Scattered Clouds
9:53 AM 45.0 °F 38.9 °F 34.0 °F 65% 29.96 in 10.0 mi ESE 12.7 mph - N/A   Mostly Cloudy
10:53 AM 46.9 °F - 35.1 °F 63% 29.94 in 10.0 mi East 16.1 mph - N/A   Scattered Clouds
11:53 AM 46.9 °F - 34.0 °F 61% 29.93 in 10.0 mi East 17.3 mph - N/A   Mostly Cloudy
12:53 PM 50.0 °F - 34.0 °F 54% 29.88 in 10.0 mi East 20.7 mph 25.3 mph N/A   Partly Cloudy
1:53 PM 51.1 °F - 35.1 °F 54% 29.84 in 10.0 mi ESE 17.3 mph 24.2 mph N/A   Mostly Cloudy
2:53 PM 51.1 °F - 35.1 °F 54% 29.80 in 10.0 mi SE 19.6 mph 26.5 mph N/A   Overcast
3:53 PM 48.0 °F - 36.0 °F 63% 29.79 in 10.0 mi ESE 23.0 mph 29.9 mph 0.00 in Rain Light Rain
4:53 PM 46.9 °F - 35.1 °F 63% 29.80 in 10.0 mi East 23.0 mph 31.1 mph 0.00 in   Overcast
5:53 PM 39.9 °F 29.2 °F 36.0 °F 86% 29.85 in 5.0 mi East 25.3 mph 31.1 mph 0.02 in Rain Rain
6:04 PM 37.4 °F 28.2 °F 35.6 °F 93% 29.98 in 2.5 mi ESE 16.1 mph 32.2 mph 0.06 in Rain Heavy Rain
6:06 PM 37.4 °F 27.8 °F 35.6 °F 93% 29.97 in 3.0 mi East 17.3 mph 31.1 mph 0.07 in Rain Heavy Rain
6:30 PM 37.4 °F 27.5 °F 35.6 °F 93% 30.00 in 4.0 mi ENE 18.4 mph - 0.16 in Rain Heavy Rain
6:53 PM 37.0 °F 27.7 °F 35.1 °F 93% 29.94 in 4.0 mi East 16.1 mph 26.5 mph 0.21 in Rain Light Rain
7:04 PM 35.6 °F 24.5 °F 33.8 °F 93% 30.00 in 3.0 mi East 20.7 mph 27.6 mph 0.02 in Rain Rain
7:53 PM 34.0 °F 22.4 °F 32.0 °F 92% 29.99 in 3.0 mi East 20.7 mph 27.6 mph 0.09 in Rain Heavy Rain
8:03 PM 33.8 °F 21.9 °F 32.0 °F 93% 30.03 in 2.0 mi East 21.9 mph - 0.02 in Rain Heavy Rain
8:16 PM 33.8 °F 22.2 °F 32.0 °F 93% 30.03 in 1.2 mi East 20.7 mph 27.6 mph 0.05 in Snow Light Snow
8:34 PM 33.8 °F 21.3 °F 30.2 °F 87% 30.03 in 0.8 mi East 24.2 mph 32.2 mph 0.08 in Snow Light Snow
8:53 PM 32.0 °F 20.1 °F 30.9 °F 96% 30.01 in 0.5 mi East 19.6 mph 29.9 mph 0.12 in Fog , Snow Snow
9:13 PM 32.0 °F 19.8 °F 30.2 °F 93% 30.03 in 1.2 mi East 20.7 mph 27.6 mph 0.03 in Snow Light Snow
9:27 PM 30.2 °F 16.8 °F 30.2 °F 100% 30.04 in 2.0 mi East 23.0 mph 31.1 mph 0.04 in Snow Light Snow
9:36 PM 30.2 °F 17.1 °F 30.2 °F 100% 30.04 in 2.0 mi ENE 21.9 mph 29.9 mph 0.04 in Snow Light Snow
9:53 PM 30.9 °F 17.8 °F 28.9 °F 92% 29.99 in 3.0 mi East 23.0 mph 33.4 mph 0.04 in Snow Light Snow
10:05 PM 30.2 °F 17.4 °F 28.4 °F 93% 30.06 in 2.5 mi East 20.7 mph 31.1 mph 0.00 in Snow Light Snow
10:13 PM 30.2 °F 18.9 °F 28.4 °F 93% 30.06 in 3.0 mi East 16.1 mph 26.5 mph 0.00 in Snow Light Snow
10:21 PM 30.2 °F 16.8 °F 28.4 °F 93% 30.05 in 1.8 mi ENE 23.0 mph 32.2 mph 0.00 in Snow Light Snow
10:42 PM 30.2 °F 18.1 °F 28.4 °F 93% 30.06 in 1.2 mi ENE 18.4 mph 25.3 mph 0.00 in   Overcast
10:53 PM 30.0 °F 17.9 °F 28.9 °F 96% 29.99 in 2.0 mi East 18.4 mph 31.1 mph 0.00 in   Overcast
11:15 PM 30.2 °F 16.8 °F 28.4 °F 93% 30.05 in 2.0 mi East 23.0 mph 28.8 mph 0.00 in Snow Light Snow
11:30 PM 30.2 °F 17.8 °F 28.4 °F 93% 30.06 in 3.0 mi ENE 19.6 mph 29.9 mph 0.00 in Snow Light Snow
11:46 PM 28.4 °F 14.4 °F 26.6 °F 93% 30.03 in 2.5 mi ENE 23.0 mph 28.8 mph 0.00 in Snow Light Snow
11:53 PM 28.9 °F 15.4 °F 27.0 °F 92% 29.99 in 1.8 mi ENE 21.9 mph 28.8 mph 0.00 in Snow Light Snow